Edmonton, Alberta

7:58 AM MDT on August 18, 2017 (GMT -0600)
Edmonton International Airport

Weather History for CYEG - April, 2013

Change the Weather History Date:

Monday, April 1, 2013

  Actual Average Record
Temperature  
Mean Temperature 25 °F -  
Max Temperature 36 °F 50 °F 63 °F (2016)
Min Temperature 14 °F 27 °F -7 °F (2014)
Degree Days  
Heating Degree Days 40    
Moisture  
Dew Point 22 °F    
Average Humidity 78    
Maximum Humidity 93    
Minimum Humidity 56    
Precipitation  
Precipitation 0.00 in 0.03 in - ()
Sea Level Pressure  
Sea Level Pressure 30.25 in    
Wind  
Wind Speed 6 mph ()    
Max Wind Speed 17 mph    
Max Gust Speed 22 mph    
Visibility 14.1 miles    
Events      
Averages and records for this station are not official NWS values.
T = Trace of Precipitation, MM = Missing Value Source: Averaged Metar Reports

Daily Weather History Graph

Daily Weather History Graph

Search for Another Location

Airport or City:

Trip Planner

Search our weather history database for the weather conditions in past years. The results will help you decide how hot, cold, wet, or windy it might be!

Date:

Astronomy

Apr. 01, 2013 Rise Set
Actual Time 7:06 AM MDT 8:10 PM MDT
Civil Twilight 6:31 AM MDT 8:45 PM MDT
Nautical Twilight 5:48 AM MDT 9:28 PM MDT
Astronomical Twilight 5:02 AM MDT 10:15 PM MDT
Moon 1:59 AM MDT (4/1) 10:19 AM MDT (4/1)
Length of Visible Light 14h 14m
Length of Day
13h 03m
Waning Gibbous, 66% of the Moon is Illuminated
Apr 1
Waning Gibbous
Apr 2
Last Quarter
Apr 10
New
Apr 18
First Quarter
Apr 25
Full

Hourly Weather History & Observations

Time (MDT) Temp. Windchill Dew Point Humidity Pressure Visibility Wind Dir Wind Speed Gust Speed Precip Events Conditions
12:00 AM 24 °F - 20 °F 76% 30.27 in 15 mi NNW 4.6 mph - -   Clear
12:00 AM 23.0 °F 17.0 °F 19.4 °F 86% 30.27 in 15.0 mi North 4.6 mph - N/A   Scattered Clouds
1:00 AM 21.2 °F 16.4 °F 17.6 °F 86% 30.28 in 15.0 mi WSW 3.5 mph - N/A   Scattered Clouds
2:00 AM 21.2 °F - 17.6 °F 86% 30.29 in 15.0 mi SSW 2.3 mph - N/A   Mostly Cloudy
3:00 AM 21.2 °F - 19.4 °F 93% 30.29 in 15.0 mi Calm Calm - N/A   Scattered Clouds
4:00 AM 17.6 °F 12.3 °F 15.8 °F 93% 30.30 in 15.0 mi SSW 3.5 mph - N/A   Partly Cloudy
5:00 AM 23.0 °F - 19.4 °F 86% 30.28 in 15.0 mi Calm Calm - N/A   Clear
6:00 AM 16 °F - 14 °F 86% 30.30 in 15 mi South 4.6 mph - -   Scattered Clouds
6:00 AM 15.8 °F 8.6 °F 14.0 °F 93% 30.30 in 15.0 mi SSE 4.6 mph - N/A   Partly Cloudy
7:00 AM 15.8 °F 8.6 °F 14.0 °F 93% 30.30 in 10.0 mi SSE 4.6 mph - N/A   Partly Cloudy
8:00 AM 15.8 °F 8.6 °F 14.0 °F 93% 30.30 in 8.0 mi South 4.6 mph - N/A   Partly Cloudy
9:00 AM 19.4 °F 12.8 °F 15.8 °F 86% 30.30 in 7.0 mi South 4.6 mph - N/A   Partly Cloudy
10:00 AM 26.6 °F 22.6 °F 21.2 °F 80% 30.28 in 10.0 mi SSE 3.5 mph - N/A   Partly Cloudy
11:00 AM 33.8 °F 29.6 °F 24.8 °F 70% 30.27 in 15.0 mi SE 4.6 mph - N/A   Partly Cloudy
12:00 PM 34 °F - 24 °F 56% 30.27 in 15 mi SE 11.5 mph - -   Clear
12:00 PM 33.8 °F 25.8 °F 24.8 °F 70% 30.27 in 15.0 mi SE 10.4 mph - N/A   Partly Cloudy
1:00 PM 35.6 °F 28.0 °F 24.8 °F 65% 30.27 in 15.0 mi SE 10.4 mph - N/A   Partly Cloudy
2:00 PM 35.6 °F 27.1 °F 24.8 °F 65% 30.25 in 15.0 mi SE 12.7 mph - N/A   Partly Cloudy
3:00 PM 35.6 °F 26.6 °F 24.8 °F 65% 30.24 in 15.0 mi SE 13.8 mph - N/A   Partly Cloudy
4:00 PM 35.6 °F 25.5 °F 24.8 °F 65% 30.22 in 15.0 mi SE 17.3 mph - N/A   Scattered Clouds
5:00 PM 37.4 °F 27.8 °F 26.6 °F 65% 30.19 in 15.0 mi ESE 17.3 mph - N/A   Partly Cloudy
6:00 PM 36 °F - 28 °F 62% 30.19 in 15 mi ESE 16.1 mph - -   Clear
6:00 PM 35.6 °F 26.2 °F 28.4 °F 75% 30.19 in 15.0 mi ESE 15.0 mph - N/A   Partly Cloudy
7:00 PM 35.6 °F 26.2 °F 28.4 °F 75% 30.18 in 15.0 mi ESE 15.0 mph - N/A   Scattered Clouds
8:00 PM 32.0 °F 21.2 °F 26.6 °F 80% 30.16 in 15.0 mi ESE 16.1 mph - N/A   Mostly Cloudy
9:00 PM 30.2 °F 19.3 °F 26.6 °F 86% 30.15 in 15.0 mi ESE 15.0 mph - N/A   Mostly Cloudy
10:00 PM 30.2 °F 19.3 °F 24.8 °F 80% 30.14 in 15.0 mi SE 15.0 mph - N/A   Mostly Cloudy
11:00 PM 30.2 °F 19.3 °F 24.8 °F 80% 30.12 in 15.0 mi SE 15.0 mph 21.9 mph N/A   Mostly Cloudy